Weather History for Hays, KS

Change the Weather History Date:

Saturday, March 8, 2014

  Actual Average Record
Temperature  
Mean Temperature 34 °F -  
Max Temperature 44 °F 46 °F 71 °F (1997)
Min Temperature 24 °F 23 °F 12 °F (2008)
Degree Days  
Heating Degree Days 31    
Moisture  
Dew Point 20 °F    
Average Humidity 63    
Maximum Humidity 80    
Minimum Humidity 37    
Precipitation  
Precipitation 0.00 in - - ()
Sea Level Pressure  
Sea Level Pressure 30.27 in    
Wind  
Wind Speed 15 mph (North)    
Max Wind Speed 23 mph    
Max Gust Speed 30 mph    
Visibility 10 miles    
Events      
Averages and records for this station are not official NWS values.
T = Trace of Precipitation, MM = Missing Value Source: NWS Daily Summary

Daily Weather History Graph

Daily Weather History Graph

Search for Another Location

Airport:

Trip Planner

Search our weather history database for the weather conditions in past years. The results will help you decide how hot, cold, wet, or windy it might be!

Date:

Astronomy

Mar. 08, 2014 Rise Set
Actual Time 6:59 AM CST 6:37 PM CST
Civil Twilight 6:32 AM CST 7:03 PM CST
Nautical Twilight 6:01 AM CST 7:34 PM CST
Astronomical Twilight 5:30 AM CST 8:05 PM CST
Moon 11:45 AM CST (3/8) 1:32 AM CST (3/8)
Length of Visible Light 12h 31m
Length of Day
11h 38m
First Quarter, 52% of the Moon is Illuminated
Mar 8
First Quarter
Mar 16
Full
Mar 23
Last Quarter
Mar 30
New
Apr 7
First Quarter

Hourly Weather History & Observations

Time (CST) Temp. Windchill Dew Point Humidity Pressure Visibility Wind Dir Wind Speed Gust Speed Precip Events Conditions
12:15 AM 28.4 °F 16.2 °F 19.4 °F 69% 30.17 in 10.0 mi North 17.3 mph 26.5 mph N/A   Overcast
12:35 AM 28.4 °F 14.7 °F 17.6 °F 64% 30.17 in 10.0 mi North 21.9 mph 26.5 mph N/A   Overcast
12:55 AM 28.4 °F 15.1 °F 17.6 °F 64% 30.17 in 10.0 mi North 20.7 mph 25.3 mph N/A   Overcast
1:15 AM 28.4 °F 14.7 °F 19.4 °F 69% 30.18 in 10.0 mi North 21.9 mph 25.3 mph N/A   Overcast
1:35 AM 28.4 °F 14.4 °F 19.4 °F 69% 30.18 in 10.0 mi North 23.0 mph 29.9 mph N/A   Overcast
1:55 AM 26.6 °F 12.7 °F 19.4 °F 74% 30.18 in 10.0 mi North 20.7 mph 27.6 mph N/A   Overcast
2:15 AM 26.6 °F 12.0 °F 19.4 °F 74% 30.18 in 10.0 mi North 23.0 mph 28.8 mph N/A   Overcast
2:35 AM 26.6 °F 13.1 °F 21.2 °F 80% 30.18 in 10.0 mi North 19.6 mph - N/A   Overcast
2:55 AM 26.6 °F 12.7 °F 21.2 °F 80% 30.18 in 10.0 mi North 20.7 mph 25.3 mph N/A   Overcast
3:15 AM 26.6 °F 14.3 °F 21.2 °F 80% 30.18 in 3.0 mi North 16.1 mph - N/A   Overcast
3:35 AM 26.6 °F 13.8 °F 21.2 °F 80% 30.19 in 2.5 mi North 17.3 mph - N/A   Overcast
3:55 AM 26.6 °F 13.1 °F 21.2 °F 80% 30.19 in 4.0 mi North 19.6 mph - N/A   Overcast
4:15 AM 26.6 °F 13.4 °F 21.2 °F 80% 30.20 in 5.0 mi North 18.4 mph - N/A   Overcast
4:35 AM 26.6 °F 13.8 °F 21.2 °F 80% 30.20 in 4.0 mi North 17.3 mph - N/A   Overcast
4:55 AM 24.8 °F 10.7 °F 19.4 °F 80% 30.21 in 4.0 mi North 19.6 mph - N/A   Overcast
5:15 AM 24.8 °F 10.3 °F 19.4 °F 80% 30.22 in 8.0 mi North 20.7 mph 25.3 mph N/A   Overcast
5:35 AM 24.8 °F 10.7 °F 19.4 °F 80% 30.22 in 10.0 mi North 19.6 mph - N/A   Overcast
5:55 AM 26.6 °F 14.3 °F 19.4 °F 74% 30.24 in 10.0 mi North 16.1 mph - N/A   Overcast
6:15 AM 24.8 °F 12.9 °F 19.4 °F 80% 30.26 in 10.0 mi North 13.8 mph - N/A   Overcast
6:35 AM 24.8 °F 11.9 °F 19.4 °F 80% 30.26 in 10.0 mi North 16.1 mph - N/A   Overcast
6:55 AM 24.8 °F 11.9 °F 19.4 °F 80% 30.26 in 10.0 mi North 16.1 mph - N/A   Overcast
7:15 AM 24.8 °F 12.4 °F 19.4 °F 80% 30.27 in 10.0 mi North 15.0 mph - N/A   Overcast
7:35 AM 24.8 °F 12.4 °F 19.4 °F 80% 30.28 in 10.0 mi North 15.0 mph - N/A   Overcast
7:55 AM 24.8 °F 11.9 °F 19.4 °F 80% 30.29 in 10.0 mi North 16.1 mph 20.7 mph N/A   Overcast
8:15 AM 24.8 °F 11.5 °F 17.6 °F 74% 30.29 in 10.0 mi North 17.3 mph - N/A   Overcast
8:35 AM 26.6 °F 13.8 °F 19.4 °F 74% 30.30 in 10.0 mi North 17.3 mph - N/A   Overcast
8:55 AM 26.6 °F 14.3 °F 19.4 °F 74% 30.31 in 10.0 mi North 16.1 mph - N/A   Mostly Cloudy
9:15 AM 26.6 °F 12.7 °F 17.6 °F 69% 30.32 in 10.0 mi North 20.7 mph - N/A   Mostly Cloudy
9:35 AM 26.6 °F 13.1 °F 17.6 °F 69% 30.33 in 10.0 mi North 19.6 mph - N/A   Scattered Clouds
9:55 AM 26.6 °F 13.8 °F 17.6 °F 69% 30.33 in 10.0 mi North 17.3 mph 24.2 mph N/A   Mostly Cloudy
10:15 AM 28.4 °F 16.2 °F 19.4 °F 69% 30.33 in 10.0 mi North 17.3 mph - N/A   Mostly Cloudy
10:35 AM 28.4 °F 16.6 °F 19.4 °F 69% 30.34 in 10.0 mi North 16.1 mph - N/A   Mostly Cloudy
10:55 AM 30.2 °F 18.1 °F 19.4 °F 64% 30.34 in 10.0 mi North 18.4 mph 24.2 mph N/A   Scattered Clouds
11:15 AM 30.2 °F 18.5 °F 21.2 °F 69% 30.34 in 10.0 mi North 17.3 mph 20.7 mph N/A   Clear
11:35 AM 30.2 °F 19.3 °F 19.4 °F 64% 30.34 in 10.0 mi North 15.0 mph 19.6 mph N/A   Clear
11:55 AM 32.0 °F 22.5 °F 19.4 °F 60% 30.33 in 10.0 mi North 12.7 mph - N/A   Clear
12:15 PM 33.8 °F 27.7 °F 19.4 °F 56% 30.34 in 10.0 mi North 6.9 mph - N/A   Clear
12:35 PM 33.8 °F 26.4 °F 19.4 °F 56% 30.33 in 10.0 mi North 9.2 mph - N/A   Clear
12:55 PM 35.6 °F 29.2 °F 19.4 °F 52% 30.33 in 10.0 mi North 8.1 mph - N/A   Clear
1:15 PM 37.4 °F 30.3 °F 19.4 °F 48% 30.32 in 10.0 mi NNE 10.4 mph 16.1 mph N/A   Clear
1:35 PM 37.4 °F 29.3 °F 21.2 °F 52% 30.31 in 10.0 mi NNE 12.7 mph - N/A   Clear
1:55 PM 39.2 °F 32.0 °F 21.2 °F 49% 30.30 in 10.0 mi North 11.5 mph - N/A   Clear
2:15 PM 41.0 °F 35.8 °F 21.2 °F 45% 30.29 in 10.0 mi North 8.1 mph 19.6 mph N/A   Clear
2:35 PM 42.8 °F 37.5 °F 21.2 °F 42% 30.29 in 10.0 mi North 9.2 mph 16.1 mph N/A   Clear
2:55 PM 42.8 °F 37.0 °F 19.4 °F 39% 30.29 in 10.0 mi North 10.4 mph - N/A   Clear
3:15 PM 42.8 °F 36.2 °F 19.4 °F 39% 30.28 in 10.0 mi North 12.7 mph - N/A   Clear
3:35 PM 44.6 °F 38.4 °F 19.4 °F 37% 30.28 in 10.0 mi North 12.7 mph 17.3 mph N/A   Clear
3:55 PM 44.6 °F 38.8 °F 19.4 °F 37% 30.28 in 10.0 mi North 11.5 mph - N/A   Clear
4:15 PM 44.6 °F 38.8 °F 19.4 °F 37% 30.28 in 10.0 mi NNW 11.5 mph - N/A   Clear
4:35 PM 44.6 °F 42.2 °F 19.4 °F 37% 30.28 in 10.0 mi North 4.6 mph - N/A   Clear
4:55 PM 44.6 °F 40.2 °F 21.2 °F 39% 30.28 in 10.0 mi North 8.1 mph - N/A   Clear
5:15 PM 44.6 °F 41.4 °F 21.2 °F 39% 30.28 in 10.0 mi North 5.8 mph - N/A   Clear
5:35 PM 44.6 °F 43.1 °F 21.2 °F 39% 30.27 in 10.0 mi North 3.5 mph - N/A   Clear
5:55 PM 42.8 °F 37.0 °F 21.2 °F 42% 30.28 in 10.0 mi NNW 10.4 mph - N/A   Clear
6:15 PM 41.0 °F 35.8 °F 21.2 °F 45% 30.28 in 10.0 mi North 8.1 mph - N/A   Clear
6:35 PM 39.2 °F 35.0 °F 19.4 °F 45% 30.29 in 10.0 mi North 5.8 mph - N/A   Clear
6:55 PM 35.6 °F 30.7 °F 19.4 °F 52% 30.30 in 10.0 mi NNE 5.8 mph - N/A   Clear
7:15 PM 35.6 °F 31.7 °F 19.4 °F 52% 30.30 in 10.0 mi NNE 4.6 mph - N/A   Clear
7:35 PM 35.6 °F 32.8 °F 19.4 °F 52% 30.30 in 10.0 mi NNE 3.5 mph - N/A   Clear
7:55 PM 32.0 °F - 17.6 °F 55% 30.30 in 10.0 mi Calm Calm - N/A   Clear
8:15 PM 33.8 °F - 19.4 °F 56% 30.30 in 10.0 mi Calm Calm - N/A   Clear
8:35 PM 33.8 °F - 19.4 °F 56% 30.31 in 10.0 mi Calm Calm - N/A   Clear
8:55 PM 30.2 °F - 19.4 °F 64% 30.31 in 10.0 mi Calm Calm - N/A   Clear
9:15 PM 30.2 °F - 19.4 °F 64% 30.31 in 10.0 mi Calm Calm - N/A   Clear
9:35 PM 28.4 °F 24.6 °F 19.4 °F 69% 30.31 in 10.0 mi South 3.5 mph - N/A   Clear
9:55 PM 28.4 °F 24.6 °F 19.4 °F 69% 30.31 in 10.0 mi South 3.5 mph - N/A   Clear
10:15 PM 28.4 °F 24.6 °F 17.6 °F 64% 30.31 in 10.0 mi South 3.5 mph - N/A   Clear
10:35 PM 28.4 °F 24.6 °F 19.4 °F 69% 30.31 in 10.0 mi SW 3.5 mph - N/A   Clear
10:55 PM 28.4 °F - 19.4 °F 69% 30.31 in 10.0 mi Calm Calm - N/A   Clear
11:15 PM 26.6 °F 21.2 °F 19.4 °F 74% 30.30 in 10.0 mi WSW 4.6 mph - N/A   Clear
11:35 PM 26.6 °F 20.0 °F 19.4 °F 74% 30.30 in 10.0 mi WSW 5.8 mph - N/A   Clear
11:55 PM 26.6 °F 20.0 °F 19.4 °F 74% 30.30 in 10.0 mi WSW 5.8 mph - N/A   Clear